Regional Weather Roundup
Issued by NWS

Home | Current Version | Previous Version | Graphics & Text | Print | Product List | Glossary On
Versions: 1 2 3 4 5 6 7 8 9 10 11 12 13 14 15 16 17 18 19 20 21 22 23 24 25 26 27 28 29 30 31 32 33 34 35 36 37 38 39 40 41 42 43 44 45 46 47 48 49 50
000
ASUS43 KIND 260159
RWRIN

WEATHER ROUNDUP FOR INDIANA
NATIONAL WEATHER SERVICE INDIANAPOLIS IN
1000 PM EDT THU AUG 25 2016

NOTE: "FAIR" INDICATES FEW OR NO CLOUDS BELOW 12,000 FEET WITH NO
SIGNIFICANT WEATHER AND/OR OBSTRUCTIONS TO VISIBILITY.

* - STATION DOES NOT REPORT WEATHER SUCH AS PRECIPITATION OR FOG.

+ - STATION NOT QUALITY CONTROLLED BY THE NATIONAL WEATHER SERVICE.
    USE DATA WITH CAUTION...ESPECIALLY DEWPOINT AND RELATIVE
    HUMIDITY OBSERVATIONS.

INZ001>003-010>013-019-020-260300-
NORTHWEST INDIANA

CITY           SKY/WX    TMP DP  RH WIND       PRES   REMARKS
GARY /AIRPORT/ PTCLDY    72  72 100 CALM      30.07R
KNOX *+        CLOUDY    73  57  56 SW5       30.06R
MONTICELLO +   PTCLDY    74  69  85 CALM      30.05R
RENSSELAER +   PTCLDY    72  70  94 CALM      30.06S

$$

LMZ046-743>745-260300-
SOUTHERN LAKE MICHIGAN

STATION/POSITION TIME  TEMP    WIND        PRES    WAVE
                       AIR SEA DIR/SP/G            HT
                 (UTC) (F)     (DEG/KT/KT) (MB)    (FT)
BURNS HARBOR     0100   74      60/  6/ 10 1017.6R
MICHIGAN CITY    0100   74      30/  4/  4   N/A
5NW MICH CITY    0100   74 74   80/  4/  4   N/A     1

$$

INZ004-005-014>016-021>024-260300-
NORTH CENTRAL INDIANA

CITY           SKY/WX    TMP DP  RH WIND       PRES   REMARKS
GOSHEN         PTCLDY    73  68  84 CALM      30.06R
PERU/GRISSOM   CLOUDY    74  73  94 SW3       30.05R
SOUTH BEND     CLEAR     70  68  93 N3        30.07R

$$

INZ006>009-017-018-025>027-260300-
NORTHEAST INDIANA

CITY           SKY/WX    TMP DP  RH WIND       PRES   REMARKS
ANGOLA *+      CLEAR     73  66  78 NW3       30.06R
FORT WAYNE     PTCLDY    74  70  87 SW6       30.06R

$$

INZ028-029-035-036-043>045-051>053-260300-
WEST CENTRAL INDIANA

CITY           SKY/WX    TMP DP  RH WIND       PRES   REMARKS
CRAWFORDSVL +  MOCLDY    73  73 100 CALM      30.06S
GREENCASTLE +  CLOUDY    73  73 100 CALM      30.07R
LAFAYETTE      CLOUDY    74  74 100 CALM      30.05R
TERRE HAUTE    CLEAR     79  74  84 W7        30.05R

$$

INZ030>032-037>040-046>048-054>057-064-065-260300-
CENTRAL INDIANA

CITY           SKY/WX    TMP DP  RH WIND       PRES   REMARKS
COLUMBUS       CLEAR     77  77 100 CALM      30.06R
INDIANAPOLIS   PTCLDY    80  72  76 NW3       30.06R
-EAGLE CREEK   MOCLDY    80  73  79 CALM      30.06R
MT COMFORT *+  PTCLDY    73  72  94 CALM      30.08R
SHELBYVILLE    PTCLDY    78  73  84 CALM      30.06R

$$

INZ033-034-041-042-049-050-058-059-260300-
EAST CENTRAL INDIANA

CITY           SKY/WX    TMP DP  RH WIND       PRES   REMARKS
MUNCIE         CLEAR     77  71  82 W5        30.07R

$$

INZ060-061-067>069-081>083-085>088-260300-
SOUTHWEST INDIANA

CITY           SKY/WX    TMP DP  RH WIND       PRES   REMARKS
EVANSVILLE     MOCLDY    81  70  69 CALM      30.07R
HUNTINGBURG *+ PTCLDY    79  72  78 S3        30.07R

$$

INZ062-063-066-070>080-084-089>092-260300-
SOUTH CENTRAL AND SOUTHEAST INDIANA

CITY           SKY/WX    TMP DP  RH WIND       PRES   REMARKS
BLOOMINGTON    CLEAR     77  73  87 SW3       30.07R
MADISON *+     CLEAR     77  72  83 S5        30.10R

$$





USA.gov is the U.S. government's official web portal to all federal, state and local government web resources and services.